User: anonymous   Login
Location: Bambrugge
(50.9212°N, 3.9299°E)
Time: 18:42:00
(UTC+00:00)
Language:

Cosmos 1140 Rocket - Orbit

View from above orbital plane
View from above orbital plane
View from above satellite
View from above satellite

Ground track
Ground track

The orbit data is extracted from the following two-line orbital elements,

1 11574U 79089B   24199.17775662  .00000595  00000-0  19066-3 0  9991
2 11574  74.0696 122.0798 0014516  88.3113 271.9706 14.41591397349745
Epoch (UTC): 17 July 2024 04:15:58
Eccentricity: 0.0014516
inclination: 74.0696°
perigee height: 743 km
apogee height: 763 km
right ascension of ascending node: 122.0798°
argument of perigee: 88.3113°
revolutions per day: 14.41591397
mean anomaly at epoch: 271.9706°
orbit number at epoch: 34974

The dashed part of the orbit path shows where the satellite is in the earth's shadow,  

DLR